Yellowstone, WY

1:49 AM MDT on June 27, 2017 (GMT -0600)
Yellowstone

Weather History for KP60 - August, 2014

Change the Weather History Date:

Friday, August 29, 2014

  Actual Average Record
Temperature  
Mean Temperature 54 °F 53 °F  
Max Temperature 68 °F 69 °F 78 °F (2005)
Min Temperature 40 °F 36 °F 32 °F (2002)
Degree Days  
Heating Degree Days 11 12  
Month to date heating degree days 359 278  
Since 1 June heating degree days 1210 1054  
Since 1 July heating degree days 624 561  
Cooling Degree Days 0 0  
Month to date cooling degree days 0 0  
Year to date cooling degree days 0 0  
Since 1 June cooling degree days 0 0  
Growing Degree Days 4 (Base 50)    
Moisture  
Dew Point 42 °F    
Average Humidity 63    
Maximum Humidity 100    
Minimum Humidity 26    
Precipitation  
Precipitation 0.00 in 0.06 in 0.13 in (2003)
Month to date precipitation 3.17 1.40  
Year to date precipitation 22.00 13.95  
Sea Level Pressure  
Sea Level Pressure 30.06 in    
Wind  
Wind Speed 3 mph (WNW)    
Max Wind Speed 18 mph    
Max Gust Speed 26 mph    
T = Trace of Precipitation, MM = Missing Value Source: NWS Daily Summary

Daily Weather History Graph

Daily Weather History Graph

Search for Another Location

Airport or City:

Trip Planner

Search our weather history database for the weather conditions in past years. The results will help you decide how hot, cold, wet, or windy it might be!

Date:

Astronomy

Aug. 29, 2014 Rise Set
Actual Time 6:40 AM MDT 8:03 PM MDT
Civil Twilight 6:10 AM MDT 8:33 PM MDT
Nautical Twilight 5:33 AM MDT 9:10 PM MDT
Astronomical Twilight 4:55 AM MDT 9:48 PM MDT
Moon 10:44 AM MDT (8/29) 9:51 PM MDT (8/29)
Length of Visible Light 14h 23m
Length of Day
13h 22m
Waxing Crescent, 15% of the Moon is Illuminated
Aug 29
Waxing Crescent
Sep 2
First Quarter
Sep 8
Full
Sep 15
Last Quarter
Sep 24
New

Hourly Weather History & Observations

Time (MDT) Temp. Windchill Dew Point Humidity Pressure Visibility Wind Dir Wind Speed Gust Speed Precip Events Conditions
12:56 AM 48.0 °F - 46.0 °F 93% 30.11 in - NE 3.5 mph - 0.02 in   Unknown
1:56 AM 46.9 °F - 44.1 °F 90% 30.06 in - Calm Calm - N/A   Unknown
2:56 AM 45.0 °F - 45.0 °F 100% 30.07 in - Calm Calm - N/A   Unknown
3:56 AM 45.0 °F - 44.1 °F 97% 30.07 in - Calm Calm - N/A   Unknown
4:56 AM 44.1 °F - 43.0 °F 96% 30.08 in - Calm Calm - N/A   Unknown
5:56 AM 43.0 °F - 41.0 °F 93% 30.09 in - Calm Calm - N/A   Unknown
6:56 AM 39.9 °F - 39.0 °F 97% 30.12 in - Calm Calm - N/A   Unknown
7:56 AM 44.1 °F - 43.0 °F 96% 30.13 in - Calm Calm - N/A   Unknown
8:56 AM 51.1 °F - 48.0 °F 89% 30.12 in - Calm Calm - N/A   Unknown
9:56 AM 54.0 °F - 46.9 °F 77% 30.13 in - Calm Calm - N/A   Unknown
10:56 AM 55.0 °F - 46.9 °F 74% 30.13 in - Variable 4.6 mph - N/A   Unknown
11:56 AM 60.1 °F - 48.9 °F 67% 30.09 in - ESE 6.9 mph - N/A   Unknown
12:56 PM 60.1 °F - 48.0 °F 64% 30.08 in - East 3.5 mph - N/A   Unknown
1:56 PM 66.9 °F - 37.9 °F 34% 30.03 in - WSW 9.2 mph - N/A   Unknown
2:56 PM 66.0 °F - 30.9 °F 27% 30.02 in - West 12.7 mph 20.7 mph N/A   Unknown
3:56 PM 68.0 °F - 36.0 °F 31% 30.00 in - Variable 4.6 mph - N/A   Unknown
4:56 PM 66.9 °F - 37.0 °F 33% 29.99 in - WSW 8.1 mph - N/A   Unknown
5:56 PM 66.9 °F - 36.0 °F 32% 30.00 in - Variable 3.5 mph - N/A   Unknown
6:56 PM 64.0 °F - 35.1 °F 34% 30.02 in - Variable 4.6 mph - N/A   Unknown
7:56 PM 54.0 °F - 45.0 °F 72% 30.04 in - Calm Calm - N/A   Unknown
8:56 PM 48.9 °F - 44.1 °F 83% 30.05 in - WNW 3.5 mph - N/A   Unknown
9:56 PM 55.9 °F - 37.0 °F 49% 30.00 in - West 5.8 mph - N/A   Unknown
10:56 PM 51.1 °F - 41.0 °F 68% 30.00 in - Calm Calm - N/A   Unknown
11:56 PM 46.0 °F 44.8 °F 39.9 °F 79% 30.00 in - NW 3.5 mph - N/A   Unknown